Regional Weather Roundup
Issued by NWS New Orleans/Baton Rouge, LA

Home | Current Version | Previous Version | Text Only | Print | Product List | Glossary On
Versions: 1 2 3 4 5 6 7 8 9 10 11 12 13 14 15 16 17 18 19 20 21 22 23 24 25 26 27 28 29 30 31 32 33 34 35 36 37 38 39 40 41 42 43 44 45 46 47 48 49 50
251
ASUS44 KLIX 300805
RWRLIX
NEW ORLEANS REGIONAL WEATHER ROUNDUP
NATIONAL WEATHER SERVICE NEW ORLEANS LA
300 AM CDT SAT AUG 30 2014

NOTE: "FAIR" INDICATES FEW OR NO CLOUDS BELOW 12,000 FEET WITH NO
      SIGNIFICANT WEATHER AND/OR OBSTRUCTIONS TO VISIBILITY.
      SKY/WX - SKY CONDITION AND SIGNIFICANT WEATHER.
      TMP - AIR TEMPERATURE.     DP    - DEWPOINT TEMPERATURE.
      RH  - RELATIVE HUMIDITY.   PRES  - PRESSURE.
      HI  - HEAT INDEX.          WCI   - WIND CHILL INDEX.

*  THESE STATIONS ARE NOT NWS OR FAA STATIONS AND ARE NOT UNDER
   NWS QUALITY CONTROL.

LAZ038-040-048-061>063-065>067-069-300900-
SOUTHEAST LOUISIANA

CITY           SKY/WX    TMP DP  RH WIND       PRES   REMARKS
N.O. AUDUBON     N/A     81  76  85 MISG        N/A
N.O. INTL ARPT CLOUDY    79  75  87 SE7       29.99S
N.O. LAKEFRONT MOCLDY    80  75  84 SE10      30.00S
N.O. DOWNTOWN*   N/A     81  72  74 SE5       30.00S
SLIDELL        CLOUDY    78  75  90 SE5       29.99F
BATON ROUGE    CLOUDY    75  74  96 E5        30.00R
BOOTHVILLE     CLOUDY    79  75  87 SE8       30.01F
BELLE CHASSE   MOCLDY    80  75  84 SE6       29.99R
BOGALUSA*        N/A     77  73  87 CALM      30.02S
GALLIANO*      NOT AVBL
NEW ROADS*       N/A     75  73  95 CALM      29.99S
GONZALES*      LGT RAIN  76  76 100 CALM      30.00R
HAMMOND*       CLOUDY    77  72  83 CALM      30.02R
HOUMA*         CLOUDY    77  74  90 SE3       29.99S
PORT FOURCHON* MOSUNNY   82  77  83 SE16G22   30.00F

$$

MSZ070-080>082-300900-
SOUTHERN MISSISSIPPI

CITY           SKY/WX    TMP DP  RH WIND       PRES   REMARKS
MCCOMB         CLOUDY    75  72  90 SE3       30.02S
GULFPORT       MOCLDY    82  77  84 S6        30.00F
BILOXI         MOCLDY    82  77  84 S7        30.01F
PASCAGOULA     MOCLDY    78  75  90 CALM      30.02F

$$

COASTAL OBSERVATIONS
LAKE AND NEARSHORE STATIONS

STATION/POSITION TIME  TEMP    WIND        PRES    WAVE
                       AIR SEA DIR/SP/G            HT/PER
                 (UTC) (F)     (DEG/KT/KT) (MB)    (FT/S)
PASCAGOULA       0800   83     150/  7/ 10 1015.8
WAVELAND YACHT   0800   83     180/ 11/ 13 1015.4
GRAND ISLE       0800   82 83  150/  7/ 14 1016.3
SOUTHWEST PASS   0800   83 88  150/ 11/ 17 1016.2
NEW CANAL        0800   80 82  140/  5/  9 1016.2
SHELL BEACH      0800   81 81  140/  9/ 13 1015.6

OFFSHORE STATIONS

STATION/POSITION TIME  TEMP    WIND        PRES    WAVE
                       AIR SEA DIR/SP/G            HT/PER
                 (UTC) (F)     (DEG/KT/KT) (MB)    (FT/S)
64 S DAUPHIN ISL 0800   82 84  170/ 10/ 12 1017.0

$$




USA.gov is the U.S. government's official web portal to all federal, state and local government web resources and services.